User: anonymous   Login
Location: Unspecified
(0.0000°N, 0.0000°E)
Time: 12:57:25
(UTC+00:00)
Language:

USA 264 - Orbit

View from above orbital plane
View from above orbital plane
View from above satellite
View from above satellite

Ground track
Ground track

The orbit data is extracted from the following two-line orbital elements,

1 40964U 15058A   19083.81672333 0.00000000  00000-0  00000-0 0    09
2 40964  63.4376 318.0515 0020000 160.8864 199.1136 13.40783224    06
Epoch (UTC): 24 March 2019 19:36:04
Eccentricity: 0.0020000
inclination: 63.4376°
perigee height: 1091 km
apogee height: 1121 km
right ascension of ascending node: 318.0515°
argument of perigee: 160.8864°
revolutions per day: 13.40783224
mean anomaly at epoch: 199.1136°
orbit number at epoch: 0

The dashed part of the orbit path shows where the satellite is in the earth's shadow,  

DLR